Regional Weather Roundup
Issued by NWS Wakefield, VA

Home | Current Version | Previous Version | Text Only | Print | Product List | Glossary Off
Versions: 1 2 3 4 5 6 7 8 9 10 11 12 13 14 15 16 17 18 19 20 21 22 23 24 25 26 27 28 29 30 31 32 33 34 35 36 37 38 39 40 41 42 43 44 45 46 47 48 49 50

000
ASUS41 KAKQ 011815
RWRAKQ

REGIONAL WEATHER ROUNDUP
NATIONAL WEATHER SERVICE WAKEFIELD VA
200 PM EDT MON JUN 01 2015

Note: "fair" indicates few or no clouds below 12,000 feet with no
significant weather and/or obstructions to visibility. * = Denotes
station may not report precipitation (e.g., rain,snow,etc.),
thunder or fog.

VAZ042-051-052>054-056-011900-
NORTHERN VIRGINIA

CITY           SKY/WX    TMP DP  RH WIND       PRES   REMARKS
WASH NATIONAL  PTSUNNY   90  67  46 S13       29.98F
DULLES         PTSUNNY   85  66  53 S7        29.98F
FORT BELVOIR   SUNNY     88  67  49 SE7       29.98F
QUANTICO       MOSUNNY   78  70  76 S7        29.99F
FREDERICKSBRG* SUNNY     91  66  43 S6        29.98F
STAFFORD*      MOSUNNY   87  65  48 SW8       30.03F
WARRENTON      MOSUNNY   89  69  51 SW7       29.99F
CULPEPER*      MOSUNNY   88  67  50 SW9       29.99F
MANASSAS*      MOSUNNY   88  68  51 S8        29.99F
LEESBURG*      LGT RAIN  79  72  78 CALM      30.01F
WINCHESTER     RAIN      75  70  83 N5        30.02S
FRONT ROYAL*   MOCLDY    82  68  61 NW3       30.00F
LURAY*         FAIR      88  66  48 S9        30.00F
$$

VAZ048-049-060>072-079>083-011900-
CENTRAL AND SOUTH CENTRAL VIRGINIA

CITY           SKY/WX    TMP DP  RH WIND       PRES   REMARKS
RICHMOND       CLOUDY    89  67  47 S6        29.99F
CHESTERFIELD*  NOT AVBL
PETERSBURG*    MOSUNNY   92  72  53 SW6       30.01F HX  99
HANOVER        MOSUNNY   89  67  47 SW9G16    30.01F
TAPPAHANNOCK*  MOSUNNY   90  59  35 SE5       30.00F
QUINTON*       FAIR      88  70  55 CALM      30.01F
CHARLOTTSVILLE CLOUDY    85  66  53 VRB3      29.99F
GORDONSVILLE*  MOCLDY    86  67  51 S12       29.98F
ORANGE*        MOSUNNY   90  66  45 S7        30.01F
LOUISA*        SUNNY     90  66  45 SW5       29.99F
BUMPASS*       FAIR      89  68  49 SW9       29.99F
FARMVILLE*     MOSUNNY   88  66  48 S10G16    29.99F
CREWE*         FAIR      88  67  49 S5        30.01F
FORT PICKETT*  CLOUDY    86  67  53 W8        30.01F
CHASE CITY*    MOCLDY    89  72  56 S3        30.02F HX  96
CLARKSVILLE*   NOT AVBL
SOUTH HILL*    PTSUNNY   86  68  53 SW7       30.07F
LAWRENCEVILLE* CLOUDY    77  73  88 NW7       30.02F VSB 3/4
EMPORIA*       MOSUNNY   88  68  51 SE8       30.03F
$$

VAZ088>098-011900-
SOUTHEAST VIRGINIA

CITY           SKY/WX    TMP DP  RH WIND       PRES   REMARKS
NORFOLK        MOSUNNY   91  64  40 SW8G16    30.02F
VIRGINIA BEACH MOSUNNY   89  69  51 SE16G22   30.02F
NORFOLK NAVAL  MOSUNNY   94  66  39 SW8       30.03F HX  97
WEST POINT*    PTSUNNY   90  65  42 SW7       30.02F
SALUDA*        MOCLDY    87  69  55 S8        30.00F
NEWPORT NEWS   SUNNY     93  68  43 SW8       30.02F HX  97
LANGLEY AFB    PTSUNNY   88  69  53 S9        30.01F
FORT EUSTIS    MOSUNNY   86  68  55 VRB5      30.00F
WILLIAMSBURG*  SUNNY     91  72  52 SW3       30.02F HX  98
HR EXEC AP*    FAIR      90  70  51 S6        30.04F HX  95
FRANKLIN*      PTSUNNY   89  65  46 S7        30.03F
WAKEFIELD      PTSUNNY   87  68  52 SW6       30.02F
$$

VAZ020-022-025-037-045-011900-
WEST CENTRAL AND SOUTHWEST VIRGINIA

CITY           SKY/WX    TMP DP  RH WIND       PRES   REMARKS
STAUNTON*      SUNNY     86  64  46 W6        30.04F
WAYNESBORO*    FAIR      82  62  51 SW8       30.04F
HOT SPRINGS VA CLOUDY    70  56  61 S6        30.15F
LYNCHBURG      MOSUNNY   86  64  47 W8        30.03F
DANVILLE       MOSUNNY   87  65  47 SW9       30.03F
SOUTH BOSTON*  MOCLDY    85  67  56 SW7       30.02F
MARTINSVILLE   PTSUNNY   85  64  49 SW6       30.06F
ROANOKE        TSTM      75  67  76 S13G18    30.06F
BLACKSBURG     TSTM      71  64  78 NW5       30.10F
DUBLIN*        PTSUNNY   82  63  53 S12       30.07F
MARION*        CLOUDY    68  60  77 E3        30.12F
HILLSVILLE*    PTSUNNY   76  63  64 S12G20    30.13F
RICHLANDS*     MOCLDY    76  61  60 SW6       30.10F
WISE*          PTSUNNY   72  61  68 S8        30.11F
ABINGDON*      PTSUNNY   81  60  48 CALM      30.07F
$$

MDZ021>025-VAZ099-100-011900-
SOUTHERN MARYLAND AND THE DELMARVA PENINSULA

CITY           SKY/WX    TMP DP  RH WIND       PRES   REMARKS
PATUXENT RIVER PTSUNNY   83  70  64 SE15      30.00F
BAY BRIDGE APT   N/A    N/A N/A N/A SE9       29.99F
LEONARDTOWN    PTSUNNY   84  66  54 SW6       30.01F
DOVER          DRIZZLE   79  72  78 VRB3      29.98
GEORGETOWN     PTSUNNY   89  64  43 SW13      30.00F
EASTON         SUNNY     86  70  58 SW12      30.05F
CAMBRIDGE      SUNNY     84  64  51 SW8       30.00F
SALISBURY      SUNNY     88  66  48 SW8G18    30.01F
OCEAN CITY     MOSUNNY   77  68  73 S9        30.03F
WALLOPS ISLAND PTSUNNY   81  71  71 S17       30.04F
ACCOMACK*      SUNNY     86  72  62 S15       30.04S
$$

NCZ012>017-030>032-011900-
NORTH CENTRAL AND EASTERN NORTH CAROLINA

CITY           SKY/WX    TMP DP  RH WIND       PRES   REMARKS
ROANOKE RAPIDS FAIR      88  68  51 S7        30.03F
RALEIGH        MOSUNNY   88  68  51 SW8       30.04F
ELIZABETH CITY SUNNY     85  67  54 S9        30.06F
AHOSKIE*       MOSUNNY   85  67  54 S6        30.04S
EDENTON*         N/A     86  67  52 SW3       30.05F
CURRITUCK*     SUNNY     86  62  45 SW5       30.06F
KILL DEVIL HLS MOSUNNY   85  68  57 S7        30.06F
MANTEO         SUNNY     81  69  65 S14       30.08S
CAPE HATTERAS  SUNNY     83  66  56 S7        30.09F
TARBORO*       FAIR      90  67  45 S6        30.05F
GOLDSBORO      MOSUNNY   89  66  45 S2        30.02F
WASHINGTON     SUNNY     86  67  53 S8        30.06F
GREENVILLE     SUNNY     88  68  51 S3        30.06F
NEW BERN       PTSUNNY   89  65  44 MISG      30.07F
WILMINGTON     SUNNY     84  70  62 SE12      30.07F
$$

VAZ048-011900-
ELSEWHERE

CITY           SKY/WX    TMP DP  RH WIND       PRES   REMARKS
HARRISBURG PA  LGT RAIN  72  69  90 NE10      30.00F FOG
BALTIMORE      LGT RAIN  84  66  54 CALM      29.97F
ANNAPOLIS      SUNNY     80  69  69 SE14      29.99F
ANDREWS AFB    SUNNY     87  67  50 W8        29.99F
PHILADELPHIA   PTSUNNY   76  66  71 NE12      30.02F
HENDERSON NC   PTSUNNY   87  61  41 S9        30.04F
GREENSBORO     PTSUNNY   86  65  49 SW13      30.04F
ROCKY MOUNT    MOSUNNY   90  67  46 S10       30.04F
$$

VAZ100-011900-
MARINE

STATION/POSITION TIME  TEMP    WIND        PRES    WAVE   SWELL
                       AIR SEA DIR/SP/G            HT/PER HT/PER
                 (UTC) (F)     (DEG/KT/KT) (MB)    (FT/S) (FT/S)
BRANDYWINE LGT   1700   68 68  160/ 14/ 17 1016.9F
CAPE MAY NJ      1700   72 70  170/ 11/ 15 1016.8F
LEWES DE         1700   81 62  140/  7/ 10 1016.4F
15NM E FENWICK I 1750   69 66              1017.0F   3/ 9
OCEAN-CITY-INLET 1700   65 60  210/ 10/ 12 1017.4F
WACHAPREAGUE VA  1700   79 81  190/ 13/ 17 1017.6F
THOMAS POINT MD  1800   77 73  150/ 12/ 13 1016.0F
GOOSES REEF MD   1800   76 74  170/ 12/ 14 1016.9F   2/ 3
COVE POINT MD    1700   74     170/ 10/ 11 1017.4S
SOLOMONS ISLAND  1700      73                N/A
BISHOPS HEAD MD  1700   77 79  150/ 12/ 14 1016.7F
PINEY POINT MD   1700          140/  7/  8   N/A
CAMBRIDGE MD     1700   83 76  180/  3/  8 1016.3F
LEWISETTA VA     1700   84 71              1016.2F
RAPPAHANNOCK LGT 1700          170/ 12/ 12 1018.0F
STINGRAY PT      1800   77 76  160/ 12/ 14 1017.0F   1/ 3
YORK RVR RNG VA  1700   80     150/  6/  7 1016.7F
YORKTOWN VA      1700   84 76  200/  8/ 13 1016.7F
JAMESTOWN VA     1800   85 81  210/  6/ 10   N/A
DOMINION TERM VA 1700   82     220/  7/  8 1017.3F
KIPTOPEKE VA     1700      76  180/ 11/ 12   N/A
CHES BAY BRIDGE  1700   83 74  190/  2/  3 1017.0F
CAPE HENRY VA    1700   80     140/ 14/ 17 1016.3F
CHESAPEAKE LGHT  1700   72     170/ 20/ 21 1018.3F
WILLOUBY STN VA  1700   82     240/  2/  3 1018.1F
CAPE HENRY BUOY  1728      69                N/A     3/ 9
1ST LANDING BUOY 1800      74              1016.5F
CAPE CHARLES BUO 1726      66                N/A     3/ 9   2/ 9
OFFSHORE WE BUOY 1741      70                N/A     3/ 9   2/13
64NM E OF VA BCH 1750   74 74  160/  6/  8 1018.6F   3/ 8   3/ 8
DUCK PIER NC     1700   76 55  130/ 12/ 13 1017.7F
44100 DUCK FRF   1724      75                N/A     3/ 9
44056 DUCK FRF   1711      64                N/A     3/ 9
OREGON INLET NC  1700   79 79  170/ 11/ 13 1019.0F
HATTERAS NC      1700   79 79  160/  6/  8 1019.1F
DIAMOND SHLS NC  1750   77 83  130/  2/  4 1019.3F   4/ 9   3/ 9
CAPE LOOKOUT NC  1800   78     160/  7/  9 1018.7F
$$



USA.gov is the U.S. government's official web portal to all federal, state and local government web resources and services.